Alpine, TX

6:11 PM CST on February 19, 2017 (GMT -0600)
Alpine

Weather History for KE38 - February, 2013

Change the Weather History Date:

Wednesday, February 20, 2013

  Actual Average (KMRF) Record (KMRF)
Temperature  
Mean Temperature 56 °F -  
Max Temperature 75 °F 59 °F 81 °F (2016)
Min Temperature 36 °F 29 °F -2 °F (1998)
Degree Days  
Heating Degree Days 10    
Growing Degree Days 6 (Base 50)    
Moisture  
Dew Point 20 °F    
Average Humidity 34    
Maximum Humidity 78    
Minimum Humidity 6    
Precipitation  
Precipitation 0.00 in - - ()
Sea Level Pressure  
Sea Level Pressure 29.78 in    
Wind  
Wind Speed 12 mph (South)    
Max Wind Speed 34 mph    
Max Gust Speed 47 mph    
Visibility 10 miles    
Events      
Averages and records for this station are not official NWS values.
T = Trace of Precipitation, MM = Missing Value Source: NWS Daily Summary

Daily Weather History Graph

Daily Weather History Graph

Search for Another Location

Airport or City:

Trip Planner

Search our weather history database for the weather conditions in past years. The results will help you decide how hot, cold, wet, or windy it might be!

Date:

Astronomy

Feb. 20, 2013 Rise Set
Actual Time 7:29 AM CST 6:47 PM CST
Civil Twilight 7:05 AM CST 7:11 PM CST
Nautical Twilight 6:37 AM CST 7:39 PM CST
Astronomical Twilight 6:09 AM CST 8:07 PM CST
Moon 2:22 PM CST 3:39 AM CST
Length of Visible Light 12h 05m
Length of Day
11h 17m
Waxing Gibbous, 76% of the Moon is Illuminated
Feb 20
Waxing Gibbous
Feb 25
Full
Mar 4
Last Quarter
Mar 11
New
Mar 19
First Quarter

Hourly Weather History & Observations

Time (CST) Temp. Windchill Dew Point Humidity Pressure Visibility Wind Dir Wind Speed Gust Speed Precip Events Conditions
12:15 AM 42.8 °F 40.1 °F 28.0 °F 56% 30.03 in 10.0 mi NW 4.6 mph - N/A   Scattered Clouds
12:35 AM 43.2 °F - 29.1 °F 58% 30.02 in 10.0 mi Calm Calm - N/A   Clear
12:55 AM 43.9 °F - 32.2 °F 63% 30.00 in 10.0 mi Calm Calm - N/A   Clear
1:15 AM 43.2 °F - 32.0 °F 65% 30.00 in 10.0 mi Calm Calm - N/A   Scattered Clouds
1:35 AM 42.8 °F 41.1 °F 32.0 °F 66% 30.00 in 10.0 mi NNE 3.5 mph - N/A   Overcast
1:55 AM 43.0 °F - 32.0 °F 65% 30.00 in 10.0 mi Calm Calm - N/A   Mostly Cloudy
2:15 AM 42.4 °F 40.7 °F 32.0 °F 67% 29.97 in 10.0 mi SE 3.5 mph - N/A   Mostly Cloudy
2:35 AM 41.4 °F 38.4 °F 30.9 °F 66% 29.96 in 10.0 mi SE 4.6 mph - N/A   Mostly Cloudy
2:55 AM 39.6 °F 34.0 °F 30.0 °F 69% 29.96 in 10.0 mi South 8.1 mph - N/A   Scattered Clouds
3:15 AM 37.8 °F 32.5 °F 29.5 °F 72% 29.95 in 10.0 mi SW 6.9 mph - N/A   Clear
3:35 AM 37.6 °F 32.3 °F 30.0 °F 74% 29.93 in 10.0 mi SW 6.9 mph - N/A   Clear
3:55 AM 36.1 °F 30.6 °F 29.8 °F 78% 29.93 in 10.0 mi SSW 6.9 mph - N/A   Clear
4:35 AM 38.5 °F 35.0 °F 31.5 °F 76% 29.91 in 10.0 mi South 4.6 mph - N/A   Clear
5:15 AM 37.4 °F 32.1 °F 30.9 °F 77% 29.91 in 10.0 mi SW 6.9 mph - N/A   Clear
5:35 AM 38.8 °F 36.5 °F 31.6 °F 75% 29.91 in 10.0 mi South 3.5 mph - N/A   Clear
5:55 AM 40.1 °F 36.9 °F 31.8 °F 72% 29.89 in 10.0 mi South 4.6 mph - N/A   Clear
6:15 AM 39.7 °F 34.3 °F 31.3 °F 72% 29.89 in 10.0 mi SE 8.1 mph - N/A   Clear
6:35 AM 39.0 °F 32.3 °F 31.8 °F 75% 29.89 in 10.0 mi South 10.4 mph - N/A   Clear
6:55 AM 41.9 °F 35.9 °F 33.1 °F 71% 29.88 in 10.0 mi SSW 10.4 mph - N/A   Clear
7:15 AM 42.6 °F 37.8 °F 32.4 °F 67% 29.88 in 10.0 mi SW 8.1 mph - N/A   Clear
7:55 AM 43.3 °F 37.7 °F 31.8 °F 64% 29.89 in 10.0 mi South 10.4 mph 17.3 mph N/A   Clear
8:15 AM 47.7 °F - 32.5 °F 56% 29.88 in 10.0 mi South 11.5 mph 16.1 mph N/A   Clear
8:35 AM 51.1 °F - 32.2 °F 48% 29.88 in 10.0 mi SE 3.5 mph - N/A   Clear
8:55 AM 51.6 °F - 32.5 °F 48% 29.88 in 10.0 mi Calm Calm - N/A   Clear
9:15 AM 54.7 °F - 32.4 °F 43% 29.87 in 10.0 mi SSE 13.8 mph 17.3 mph N/A   Clear
9:35 AM 58.3 °F - 31.3 °F 36% 29.86 in 10.0 mi SSE 21.9 mph - N/A   Clear
9:55 AM 59.9 °F - 30.9 °F 33% 29.86 in 10.0 mi South 17.3 mph 26.5 mph N/A   Clear
10:15 AM 61.9 °F - 30.2 °F 30% 29.85 in 10.0 mi South 21.9 mph 26.5 mph N/A   Clear
10:35 AM 62.6 °F - 29.5 °F 29% 29.85 in 10.0 mi South 21.9 mph 27.6 mph N/A   Clear
10:55 AM 63.1 °F - 28.0 °F 27% 29.84 in 10.0 mi SSE 20.7 mph 28.8 mph N/A   Clear
11:15 AM 63.9 °F - 27.1 °F 25% 29.83 in 10.0 mi SSE 25.3 mph 32.2 mph N/A   Clear
11:35 AM 64.9 °F - 26.8 °F 24% 29.82 in 10.0 mi SSE 24.2 mph 28.8 mph N/A   Clear
11:55 AM 65.8 °F - 25.0 °F 21% 29.81 in 10.0 mi SSE 27.6 mph 33.4 mph N/A   Clear
12:15 PM 66.4 °F - 23.0 °F 19% 29.81 in 10.0 mi SSE 23.0 mph 33.4 mph N/A   Clear
12:35 PM 66.7 °F - 23.0 °F 19% 29.80 in 10.0 mi SSE 26.5 mph 34.5 mph N/A   Clear
1:15 PM 68.7 °F - 20.8 °F 16% 29.76 in 10.0 mi SSE 25.3 mph 36.8 mph N/A   Clear
1:35 PM 69.1 °F - 19.4 °F 15% 29.75 in 10.0 mi South 26.5 mph 35.7 mph N/A   Clear
1:55 PM 69.4 °F - 22.1 °F 17% 29.72 in 10.0 mi SSE 24.2 mph 35.7 mph N/A   Clear
2:15 PM 70.2 °F - 21.9 °F 16% 29.68 in 7.0 mi South 28.8 mph 36.8 mph N/A   Clear
2:35 PM 71.8 °F - 19.6 °F 14% 29.68 in 7.0 mi South 27.6 mph 40.3 mph N/A   Clear
2:55 PM 72.7 °F - 18.7 °F 13% 29.66 in 7.0 mi South 25.3 mph 44.9 mph N/A   Clear
3:15 PM 73.8 °F - 9.5 °F 8% 29.65 in 7.0 mi South 27.6 mph 40.3 mph N/A   Clear
3:35 PM 74.3 °F - 8.1 °F 8% 29.64 in 7.0 mi South 33.4 mph 47.2 mph N/A   Clear
3:55 PM 74.8 °F - 7.9 °F 8% 29.62 in 10.0 mi SSE 34.5 mph 40.3 mph N/A   Clear
4:15 PM 75.0 °F - 7.7 °F 7% 29.62 in 10.0 mi South 25.3 mph 32.2 mph N/A   Clear
4:35 PM 75.6 °F - 7.2 °F 7% 29.61 in 10.0 mi South 24.2 mph 33.4 mph N/A   Clear
4:55 PM 75.4 °F - 6.4 °F 7% 29.60 in 10.0 mi South 24.2 mph 33.4 mph N/A   Clear
5:15 PM 75.6 °F - 6.6 °F 7% 29.58 in 10.0 mi South 21.9 mph 28.8 mph N/A   Clear
5:35 PM 75.4 °F - 7.0 °F 7% 29.58 in 10.0 mi South 21.9 mph 31.1 mph N/A   Clear
5:55 PM 74.8 °F - 6.4 °F 7% 29.57 in 10.0 mi South 24.2 mph 33.4 mph N/A   Clear
6:15 PM 74.1 °F - 5.9 °F 7% 29.57 in 10.0 mi South 16.1 mph 29.9 mph N/A   Clear
6:35 PM 73.8 °F - 2.7 °F 6% 29.57 in 10.0 mi South 32.2 mph 40.3 mph N/A   Clear
6:55 PM 73.2 °F - -0.2 °F 6% 29.59 in 10.0 mi SSW 27.6 mph 35.7 mph N/A   Clear
7:35 PM 71.4 °F - -0.0 °F 6% 29.60 in 10.0 mi SSW 24.2 mph 34.5 mph N/A   Clear
7:55 PM 70.5 °F - 0.3 °F 6% 29.61 in 10.0 mi South 20.7 mph 33.4 mph N/A   Clear
8:15 PM 69.8 °F - 0.5 °F 6% 29.61 in 10.0 mi SSW 23.0 mph 32.2 mph N/A   Clear
8:35 PM 68.5 °F - 0.7 °F 7% 29.61 in 10.0 mi South 19.6 mph 28.8 mph N/A   Clear
8:55 PM 67.6 °F - 1.0 °F 7% 29.62 in 10.0 mi South 23.0 mph 32.2 mph N/A   Clear
9:35 PM 66.9 °F - 1.9 °F 8% 29.63 in 10.0 mi SSW 24.2 mph 34.5 mph N/A   Clear
9:55 PM 66.6 °F - 2.7 °F 8% 29.63 in 10.0 mi South 25.3 mph 35.7 mph N/A   Clear
10:15 PM 65.5 °F - 3.0 °F 8% 29.66 in 10.0 mi WSW 16.1 mph 26.5 mph N/A   Clear
10:35 PM 61.0 °F - 10.2 °F 14% 29.67 in 10.0 mi SSW 9.2 mph - N/A   Clear
10:55 PM 58.1 °F - 14.5 °F 18% 29.68 in 10.0 mi SW 8.1 mph - N/A   Clear
11:15 PM 56.5 °F - 16.5 °F 21% 29.68 in 10.0 mi SW 10.4 mph - N/A   Clear
11:35 PM 56.3 °F - 17.6 °F 22% 29.69 in 10.0 mi SW 12.7 mph 21.9 mph N/A   Clear
11:55 PM 55.4 °F - 17.6 °F 23% 29.69 in 10.0 mi Calm Calm - N/A   Clear